Find Starlink 11101

NORAD ID: 59715 Int'l Des: 2024-088 Owner: SPXS Country: US Constellation: starlink operational
別名: STARLINK-11101 [DTC] celestrak
LEOCIRCULAR

現在のビュー

3D地球を読み込み中...

About Starlink 11101

Starlink 11101 (NORAD 59715) is a starlink constellation satellite (v2 mini d2c) launched May 10, 2024 by SPXS of US. It operates in LEO, CIRCULAR orbit with a mass of 960.00 kg.

次回通過

Passes for default location (London). Set your location on the main map for personalized predictions.

高度履歴

Loading altitude history...

軌道要素

1 59715U 24088H 26263.90102422 .00000528 00000-0 92170-5 0 9997
2 59715 53.1584 83.8570 0001104 77.9775 282.1367 15.69708004136935
Epoch: Sep 20, 2026 • Age: 7 hours

現在のステータス

高度 363.1 km
遠地点 / 近地点 N/A
速度 7.69 km/s
衛星直下点 -11.12°S, 157.6°W
打ち上げ日 May 10, 2024
運用期間 2.3 years
タイプ internet

技術仕様

分類 Payload
質量 960.00 kg
乾燥質量 910.00 kg
長さ 0.30 m
スパン 29.00 m
形状 ? Box + pan
製造者 SPXS
バスタイプ Starlink V2MD
フェーズステータス In Orbit
所有者/国 SPXS/US

Most Searched